Regional Weather Roundup
Issued by NWS

Home | Current Version | Previous Version | Graphics & Text | Print | Product List | Glossary On
Versions: 1 2 3 4 5 6 7 8 9 10 11 12 13 14 15 16 17 18 19 20 21 22 23 24 25 26 27 28 29 30 31 32 33 34 35 36 37 38 39 40 41 42 43 44 45 46 47 48 49 50
000
ASUS43 KMPX 210201
RWRMN
WEATHER ROUNDUP FOR MINNESOTA
NATIONAL WEATHER SERVICE TWIN CITIES/CHANHASSEN MN
800 PM CST FRI JAN 20 2017


NOTE: "FAIR" INDICATES FEW OR NO CLOUDS BELOW 12,000 FEET WITH NO
SIGNIFICANT WEATHER AND/OR OBSTRUCTIONS TO VISIBILITY. N/A MEANS
CURRENT SKY AND/OR WEATHER CONDITIONS ARE NOT AVAILABLE.

MNZ060>063-068>070-210300-
   Twin Cities Metro

CITY           SKY/WX    TMP DP  RH WIND       PRES   REMARKS
TWIN CITIES    FOG       35  34  96 SE10      29.57R VSB 3/4 WCI  27
ST PAUL        CLOUDY    35  35 100 SE6       29.58S FOG     WCI  30
CRYSTAL        CLOUDY    35  33  92 SE7       29.55S FOG     WCI  29
BLAINE         FOG       37  37 100 SE6       29.54F VSB 1
LAKEVILLE      FOG       34  34 100 SE3       29.56S VSB 3/4
EDEN PRAIRIE   CLOUDY    36  34  92 SE9       29.55R FOG
SOUTH ST PAUL  FOG       36  35  99 SE5       29.57S VSB 1/2
LAKE ELMO      FOG       34  34 100 SE3       29.57S VSB 1/4
$$
MNZ001>005-007-008-013>017-022>024-027-028-210300-
   Northwest Minnesota

CITY           SKY/WX    TMP DP  RH WIND       PRES   REMARKS
BEMIDJI        CLOUDY    33  33 100 SE10      29.50F FOG     WCI  25
HALLOCK        CLOUDY    36  36 100 SE10      29.46F
ROSEAU         CLOUDY    36  30  80 SE7       29.50S HAZE
WARROAD        DRIZZLE   36  30  80 SE7       29.51S
THIEF RVR FALL CLOUDY    34  33  96 SE15      29.48F WCI  24
CROOKSTON      CLOUDY    36  34  93 SE12      29.46F
FOSSTON        CLOUDY    34  32  93 SE8       29.48F FOG     WCI  27
DETROIT LAKES  DRIZZLE   34  34 100 SE10      29.47F WCI  26
MOORHEAD       CLOUDY    36  34  93 SE7       29.46S
PARK RAPIDS    FOG       34  32  92 SE8       29.49F VSB 1   WCI  27
MAHNOMEN       CLOUDY    34  33  95 SE10      29.46F WCI  26
$$
MNZ006-009>011-018-025>026-210300-
   North Central Minnesota

CITY           SKY/WX    TMP DP  RH WIND       PRES   REMARKS
BAUDETTE       MIX PCPN  34  33  96 SE9       29.52F WCI  27
FLAG ISLAND    LGT RAIN  34  34 100 SE8       29.52S WCI  27
INTL FALLS     LGT RAIN  35  34  96 SE7       29.56F WCI  29
WASKISH        CLOUDY    36  36 100 E6        29.52F FOG
BIG FORK       CLOUDY    36  34  93 SE6       29.54F
LONGVILLE      CLOUDY    34  34 100 SE5       29.52F FOG     WCI  30
GRAND RAPIDS   LGT RAIN  34  33  96 SE5       29.56F WCI  30
CRANE LAKE     RAIN      34  34 100 CALM      29.60F VSB 3/4
ORR            LGT SNOW  34  30  86 CALM      29.55F
COOK           LGT SNOW  34  32  93 CALM      29.58S
WALKER         CLOUDY    33  33  99 SE5       29.52S FOG     WCI  29
$$
MNZ012-019>021-037-210300-
   Northeast Minnesota

CITY           SKY/WX    TMP DP  RH WIND       PRES   REMARKS
DULUTH         DRZL/FOG  34  34 100 E9        29.57F VSB 1/8 WCI  27
ELY            RAIN      34  34 100 CALM      29.59S
HIBBING        CLOUDY    32  32 100 SE7       29.56F FOG     WCI  26
EVELETH        LGT SNOW  32  32  99 CALM      29.59S
DULUTH HARBOR  CLOUDY    34  34 100 CALM      29.61F FOG
TWO HARBORS    LGT RAIN  37  34  87 E8        29.58F
SILVER BAY     LGT RAIN  36  36 100 E5        29.60F
GRAND MARAIS     N/A     35  34  96 NE7       29.65F WCI  29
G MARAIS ARPRT LGT RAIN  32  28  86 CALM      29.62F
$$
MNZ029>031-032-039>041-046>048-054>057-064-210300-
   West Central Minnesota

CITY           SKY/WX    TMP DP  RH WIND       PRES   REMARKS
FERGUS FALLS   CLOUDY    36  36 100 SE15      29.49F
WHEATON        CLOUDY    43  43 100 SE16      29.46F FOG
MORRIS         CLOUDY    34  34 100 SE15      29.46F FOG     WCI  24
ALEXANDRIA     CLOUDY    33  33 100 SE10      29.49F FOG     WCI  25
ELBOW LAKE     CLOUDY    34  34 100 SE10G16   29.47S FOG     WCI  26
WADENA         CLOUDY    34  34 100 SE9       29.49F FOG     WCI  26
GLENWOOD       FOG       34  34 100 SE10      29.50S VSB 1   WCI  26
APPLETON       CLOUDY    36  34  93 SE14      29.47F FOG
BENSON         CLOUDY    37  34  87 S10G17    29.50S
ORTONVILLE     CLOUDY    36  34  93 SE14      29.44F FOG
MADISON        CLOUDY    37  37 100 SE16      29.46F FOG
WILLMAR        CLOUDY    36  36 100 SE9       29.52S FOG
$$
MNZ033>034-036-042>043-049>051-058-059-210300-
   Central Minnesota

CITY           SKY/WX    TMP DP  RH WIND       PRES   REMARKS
ST CLOUD       FOG       34  34 100 SE6       29.53S VSB 1/4 WCI  29
SAUK CENTRE    FOG       33  33 100 SE7       29.51F VSB 1   WCI  27
PAYNESVILLE    FOG       34  34 100 SE7       29.52S VSB 3/4 WCI  28
AITKIN         CLOUDY    37  34  87 SE3       29.52F FOG
PINE RIVER     CLOUDY    34  34 100 SE7       29.56F FOG     WCI  28
BRAINERD       CLOUDY    34  34 100 SE7       29.52F FOG     WCI  28
STAPLES        FOG       34  34 100 SE3       29.51S VSB 1
LONG PRAIRIE   CLOUDY    32  32 100 E6        29.51F FOG     WCI  26
LITTLE FALLS   FOG       34  32  93 E5        29.53F VSB 3/4 WCI  30
LITCHFIELD     FOG       36  36 100 SE7       29.53S VSB 3/4
BUFFALO        CLOUDY    35  33  95 E6        29.55R FOG     WCI  30
MAPLE LAKE     FOG       36  35  99 MISG      29.54S VSB 1/2
HUTCHINSON     FOG       35  35 100 SE8       29.54S VSB 1/2 WCI  28
$$
MNZ037-044-045-052-053-210300-
   East Central Minnesota

CITY           SKY/WX    TMP DP  RH WIND       PRES   REMARKS
PRINCETON      FOG       36  36 100 E5        29.55S VSB 1/2
MORA           CLOUDY    34  32  93 E3        29.58S FOG
CAMBRIDGE      FOG       37  36  93 E3        29.53F VSB 3/4
RUSH CITY      CLOUDY    34  34 100 E5        29.56F FOG     WCI  30
MOOSE LAKE     CLOUDY    34  34 100 CALM      29.55F FOG
HINCKLEY       CLOUDY    34  34 100 CALM      29.56F FOG
CLOQUET        FOG       34  34 100 E5        29.56F VSB 1/2 WCI  30
MCGREGOR       CLOUDY    34  34 100 SE5       29.55F WCI  30
$$
MNZ071>073-080-081-089-090-097-098-210300-
   Southwest Minnesota

CITY           SKY/WX    TMP DP  RH WIND       PRES   REMARKS
MONTEVIDEO     FOG       34  34 100 S10       29.50F VSB 3/4 WCI  26
GRANITE FALLS  CLOUDY    37  36  98 SE12      29.51S FOG
CANBY          CLOUDY    37  37 100 E10       29.46F FOG
MARSHALL       CLOUDY    36  35  96 SE9       29.48F FOG
REDWOOD FALLS  CLOUDY    35  33  92 SE12      29.51S FOG     WCI  27
OLIVIA         FOG       34  34 100 SE10      29.51S VSB 1   WCI  26
PIPESTONE      DRZL/FOG  37  37 100 S9        29.44S VSB 1/2
WINDOM         DRZL/FOG  36  36 100 E7        29.50F VSB 3/4
WORTHINGTON    FOG       35  35 100 SE8       29.47F VSB 1/2 WCI  29
JACKSON        FOG       32  32 100 SE6       29.50F VSB 1/2 WCI  26
TRACY          CLOUDY    37  37 100 SE8       29.48F FOG
SLAYTON        FOG       34  34 100 SE8       29.48S VSB 1/2 WCI  27
$$
MNZ065>067-074>077-082>085-091>093-210300-
   South Central Minnesota

CITY           SKY/WX    TMP DP  RH WIND       PRES   REMARKS
MANKATO        FOG       34  33  96 SE12      29.55S VSB 1   WCI  25
NEW ULM        CLOUDY    36  36 100 SE9       29.53F FOG
ST JAMES       FOG       34  34 100 E8        29.53F VSB 3/4 WCI  27
FAIRMONT       FOG       34  34 100 SE7       29.52F VSB 1/2 WCI  28
GLENCOE        FOG       35  35 100 SE9       29.54S VSB 1   WCI  28
FARIBAULT      CLOUDY    36  36 100 SE9       29.57R FOG
OWATONNA       CLOUDY    36  34  93 SE9       29.56S FOG
WASECA         FOG       34  34 100 SE8       29.57S VSB 1/2 WCI  27
ALBERT LEA     FOG       34  34 100 SE7       29.54F VSB 1/2 WCI  28
$$
MNZ078>079-086>088-094>096-210300-
   Southeast Minnesota

CITY           SKY/WX    TMP DP  RH WIND       PRES   REMARKS
ROCHESTER      FOG       33  33 100 SE10      29.57S VSB 1/4 WCI  25
RED WING       FOG       36  34  93 SE7       29.58R VSB 1/2
STANTON        CLOUDY    36  34  93 SE7       29.55S FOG
DODGE CENTER   FOG       34  34 100 CALM      29.56S VSB 1/4
WINONA         CLOUDY    36  34  93 SE6       29.61S FOG
AUSTIN         FOG       34  32  93 E6        29.55F VSB 3/4 WCI  29
PRESTON        FOG       33  33  97 SE3       29.58F VSB 1/2
$$
ABBREVIATIONS USED IN REMARKS
   TC - TEMPERATURES IN CELSIUS
  WCI - WIND CHILL INDEX
   HX - HEAT INDEX
  VSB - VISIBILITY
$$




USA.gov is the U.S. government's official web portal to all federal, state and local government web resources and services.